Weather in Lebedinyy

Russia / Sakha (Yakutia) Republic     58°29′29″N   125°29′59″E
temp.,
°C
wind,
m/s
gust,
m/s
humid.,
%
clouds,
%
prec.,
mm/h
press.,
hPa
HPBL,
m
22 april, thu
thu2200:00−4nw3697100 2.8 1016374
03:00−6nw3996100 6.1 1019665
06:00−7nw3996100 1.4 1022719
09:00−6nw788099 2.2 10241093
12:00−5wnw7967100 0.1 10241668
15:00−5wnw7972100 0.4 10261523
18:00−6nnw5882100 0.7 10281109
21:00−10wnw2391100 1.3 103347
23 april, fri
fri2300:00−13sw229170 0.1 103610
03:00−14ssw3393100 0.1 103731
06:00−12ssw4593100 0.1 103787
09:00−7wsw6118489 0.3 1034769
12:00−4w101377100 0.3 10301670
15:00−4w121782100 0.6 10271736
18:00−4w111895100 1.6 10241603
21:00−5wnw91696100 3.8 10241094
24 april, sat
sat2400:00−6wnw81496100 1.6 10251016
03:00−6wnw91592100 2.6 10251043
06:00−7nw81589100 0.8 10271154
09:00−6nw101489100 2.1 10271439
12:00−6nnw91285100 0.7 10281608
15:00−4nnw91474100 1.1 10271934
18:00−4nnw71277100 0.3 10271441
21:00−5nw2497100 1.2 1028212
25 april, sun
sun2500:00−5wsw2597100 2.1 1027292
03:00−5wnw41096100 3.8 1026550
06:00−4w2897100 1.5 1024442
09:00−3w3695100 3.1 1023600
12:00−2wsw3589100 0.4 1021787
15:00−1wsw5786100 0.5 1019826
18:000sw3590100 0.1 1017521
21:00−3ssw3394100 0.1 101638
26 april, mon
mon2600:00−3ssw2296100 0.2 101625
03:00−3s1195100 0.3 101417
06:00−3se1193100 0.0 101237
09:00−1nne1196100 0.0 1011242
12:00−1nne11100100 0.1 1010302
15:00−1n22100100 0.4 1009346
18:00−1n3397100 0.7 1009290
21:00−2nnw2299100 1.4 101062